TK981 LTFM-LTBJ

Flight info

Callsign TK981
Flight time 0h 47m
Altitude 37000
Route IVGUS UM19 OVZOK
Aircraft C700/M-SBDGHM1RWXY/LB2

Departure

Time 2026-05-04 09:37
Airport İstanbul Airport (LTFM)

Arrival

Time 2026-05-04 10:25
Airport Adnan Menderes International Airport (LTBJ)
Time Latitude Longitude Altitude Speed Heading
2026-05-04 09:06 41.25687 28.73709 328 ft 0 kts 359°
2026-05-04 09:22 41.25679 28.73709 328 ft 1 kts 359°
2026-05-04 09:22 41.25668 28.73710 328 ft 2 kts 358°
2026-05-04 09:22 41.25653 28.73710 327 ft 2 kts 358°
2026-05-04 09:22 41.25638 28.73711 328 ft 2 kts 358°
2026-05-04 09:23 41.25623 28.73712 325 ft 2 kts 329°
2026-05-04 09:23 41.25618 28.73720 325 ft 0 kts 273°
2026-05-04 09:25 41.25618 28.73714 328 ft 0 kts 273°
2026-05-04 09:31 41.25619 28.73668 328 ft 11 kts 269°
2026-05-04 09:31 41.25616 28.73562 327 ft 12 kts 265°
2026-05-04 09:31 41.25614 28.73442 328 ft 14 kts 270°
2026-05-04 09:32 41.25610 28.73323 328 ft 6 kts 266°
2026-05-04 09:32 41.25609 28.73297 328 ft 2 kts 271°
2026-05-04 09:34 41.25809 28.73131 327 ft 19 kts 358°
2026-05-04 09:34 41.25947 28.73127 328 ft 21 kts 358°
2026-05-04 09:34 41.26090 28.73123 327 ft 17 kts 359°
2026-05-04 09:34 41.26173 28.73124 327 ft 10 kts 358°
2026-05-04 09:35 41.26215 28.73062 328 ft 11 kts 275°
2026-05-04 09:35 41.26217 28.72962 328 ft 12 kts 271°
2026-05-04 09:35 41.26216 28.72862 328 ft 4 kts 268°
2026-05-04 09:35 41.26223 28.72802 328 ft 9 kts 300°
2026-05-04 09:37 41.29303 28.72625 700 ft 168 kts 354°
2026-05-04 09:37 41.30575 28.72467 943 ft 204 kts 355°
2026-05-04 09:38 41.32042 28.72364 1111 ft 205 kts 357°
2026-05-04 09:38 41.33401 28.72357 1217 ft 195 kts 359°
2026-05-04 09:38 41.34822 28.72372 1337 ft 211 kts 358°
2026-05-04 09:38 41.36311 28.72337 1458 ft 214 kts 358°
2026-05-04 09:39 41.37748 28.72297 2218 ft 197 kts 359°
2026-05-04 09:39 41.39040 28.72271 3633 ft 185 kts 359°
2026-05-04 09:39 41.40343 28.72082 4649 ft 194 kts 341°
2026-05-04 09:39 41.41494 28.71118 5762 ft 202 kts 317°
2026-05-04 09:40 41.42210 28.69464 6803 ft 215 kts 297°
2026-05-04 09:40 41.42213 28.67369 8308 ft 235 kts 256°
2026-05-04 09:40 41.41316 28.65524 10064 ft 251 kts 234°
2026-05-04 09:40 41.40110 28.63722 11521 ft 263 kts 232°
2026-05-04 09:41 41.38834 28.61917 13051 ft 273 kts 232°
2026-05-04 09:42 41.26610 28.51791 21666 ft 321 kts 203°
2026-05-04 09:43 41.24472 28.50821 22517 ft 335 kts 191°
2026-05-04 09:43 41.22061 28.50566 22932 ft 360 kts 174°
2026-05-04 09:43 41.19471 28.50784 23324 ft 388 kts 175°
2026-05-04 09:43 41.16666 28.50736 23736 ft 413 kts 182°
2026-05-04 09:44 41.13814 28.50138 24700 ft 418 kts 193°
2026-05-04 09:44 41.11045 28.48850 25597 ft 425 kts 202°
2026-05-04 09:44 41.08334 28.47194 26463 ft 431 kts 204°
2026-05-04 09:46 40.89564 28.36456 31726 ft 472 kts 226°
2026-05-04 09:46 40.87557 28.33022 32568 ft 472 kts 236°
2026-05-04 09:46 40.86022 28.29173 33247 ft 476 kts 247°
2026-05-04 09:47 40.85020 28.25014 34136 ft 471 kts 257°
2026-05-04 09:47 40.84383 28.20836 34877 ft 467 kts 259°
2026-05-04 09:49 40.79849 27.90874 37055 ft 503 kts 259°
2026-05-04 09:49 40.79340 27.86322 37042 ft 499 kts 265°
2026-05-04 09:51 40.66240 27.61581 37051 ft 499 kts 201°
2026-05-04 09:51 40.63089 27.60170 37059 ft 476 kts 196°
2026-05-04 09:51 40.59937 27.58963 37061 ft 478 kts 193°
2026-05-04 09:52 40.53306 27.57924 37066 ft 481 kts 178°
2026-05-04 09:52 40.46672 27.58950 37076 ft 483 kts 169°
2026-05-04 09:53 40.39956 27.59948 37072 ft 489 kts 175°
2026-05-04 09:53 40.33150 27.60039 37059 ft 494 kts 186°
2026-05-04 09:54 40.26320 27.58742 37076 ft 497 kts 187°
2026-05-04 09:54 40.19489 27.57426 37082 ft 500 kts 187°
2026-05-04 09:55 40.12566 27.56097 37088 ft 502 kts 187°
2026-05-04 09:55 40.05623 27.54768 37088 ft 505 kts 187°
2026-05-04 09:56 39.98699 27.53444 37084 ft 507 kts 188°
2026-05-04 09:56 39.91857 27.52137 37071 ft 476 kts 188°
2026-05-04 09:56 39.88643 27.51525 37064 ft 456 kts 187°
2026-05-04 09:57 39.85524 27.50932 36667 ft 448 kts 187°
2026-05-04 09:57 39.82488 27.50355 36103 ft 444 kts 187°
2026-05-04 09:57 39.79433 27.49775 35517 ft 442 kts 187°
2026-05-04 09:57 39.76392 27.49197 34935 ft 439 kts 186°
2026-05-04 09:58 39.73374 27.48625 34362 ft 436 kts 186°
2026-05-04 09:58 39.70399 27.48061 33749 ft 433 kts 185°
2026-05-04 09:58 39.67439 27.47503 33239 ft 427 kts 185°
2026-05-04 10:00 39.47619 27.43785 29784 ft 399 kts 185°
2026-05-04 10:00 39.44878 27.43273 29299 ft 396 kts 185°
2026-05-04 10:02 39.26505 27.37787 26065 ft 383 kts 195°
2026-05-04 10:04 39.08719 27.31144 22844 ft 377 kts 197°
2026-05-04 10:04 39.06200 27.30207 22389 ft 375 kts 197°
2026-05-04 10:04 39.03695 27.29276 21947 ft 373 kts 197°
2026-05-04 10:04 39.01228 27.28359 21507 ft 371 kts 197°
2026-05-04 10:05 38.98751 27.27439 21063 ft 370 kts 198°
2026-05-04 10:05 38.96272 27.26520 20624 ft 369 kts 198°
2026-05-04 10:05 38.93797 27.25603 20182 ft 368 kts 198°
2026-05-04 10:05 38.91356 27.24698 19746 ft 367 kts 198°
2026-05-04 10:06 38.88894 27.23792 19310 ft 367 kts 197°
2026-05-04 10:06 38.86361 27.23284 18874 ft 369 kts 184°
2026-05-04 10:06 38.83794 27.23289 18432 ft 369 kts 180°
2026-05-04 10:08 38.68547 27.23402 15771 ft 363 kts 184°
2026-05-04 10:08 38.66062 27.22838 15341 ft 361 kts 197°
2026-05-04 10:08 38.63651 27.21967 14918 ft 360 kts 198°
2026-05-04 10:08 38.61231 27.21102 14488 ft 360 kts 197°
2026-05-04 10:09 38.58813 27.20250 14059 ft 361 kts 197°
2026-05-04 10:09 38.56364 27.19498 13596 ft 362 kts 189°
2026-05-04 10:09 38.53842 27.19384 13154 ft 362 kts 176°
2026-05-04 10:09 38.51367 27.19892 12712 ft 358 kts 169°
2026-05-04 10:10 38.48893 27.19760 12238 ft 358 kts 196°
2026-05-04 10:10 38.46757 27.18307 11810 ft 350 kts 221°
2026-05-04 10:10 38.44656 27.16761 11414 ft 353 kts 199°
2026-05-04 10:10 38.42228 27.16529 11002 ft 353 kts 171°
2026-05-04 10:11 38.39977 27.17670 10606 ft 348 kts 144°
2026-05-04 10:11 38.38123 27.19625 10231 ft 343 kts 134°
2026-05-04 10:11 38.36380 27.21690 9863 ft 342 kts 135°
2026-05-04 10:11 38.34539 27.23596 9459 ft 342 kts 142°
2026-05-04 10:12 38.32489 27.25106 9064 ft 336 kts 151°
2026-05-04 10:12 38.30439 27.26273 9015 ft 310 kts 158°
2026-05-04 10:12 38.28402 27.26910 9019 ft 296 kts 168°
2026-05-04 10:12 38.26386 27.27405 9024 ft 302 kts 167°
2026-05-04 10:13 38.24312 27.28020 9033 ft 309 kts 165°
2026-05-04 10:13 38.22205 27.28687 9038 ft 313 kts 165°
2026-05-04 10:13 38.20093 27.29326 8741 ft 309 kts 166°
2026-05-04 10:13 38.18024 27.29930 8353 ft 300 kts 166°
2026-05-04 10:14 38.16037 27.30515 7961 ft 286 kts 165°
2026-05-04 10:14 38.14163 27.31078 7661 ft 253 kts 165°
2026-05-04 10:16 38.07996 27.26551 4996 ft 161 kts 244°
2026-05-04 10:16 38.07630 27.25289 4750 ft 146 kts 271°
2026-05-04 10:16 38.07659 27.24040 4564 ft 140 kts 289°
2026-05-04 10:16 38.08012 27.22915 4440 ft 133 kts 308°
2026-05-04 10:17 38.08606 27.22041 4281 ft 131 kts 324°
2026-05-04 10:17 38.09381 27.21461 4106 ft 127 kts 341°
2026-05-04 10:19 38.15320 27.19661 2907 ft 127 kts 348°
2026-05-04 10:19 38.16169 27.19407 2738 ft 125 kts 348°
2026-05-04 10:19 38.17012 27.19154 2563 ft 124 kts 348°
2026-05-04 10:19 38.17856 27.18901 2398 ft 123 kts 348°
2026-05-04 10:20 38.18678 27.18655 2226 ft 121 kts 348°
2026-05-04 10:20 38.19502 27.18408 2069 ft 122 kts 348°
2026-05-04 10:20 38.20329 27.18158 1911 ft 124 kts 347°
2026-05-04 10:20 38.21170 27.17907 1735 ft 124 kts 347°
2026-05-04 10:21 38.22018 27.17652 1556 ft 126 kts 347°
2026-05-04 10:21 38.22866 27.17397 1388 ft 121 kts 347°
2026-05-04 10:21 38.23686 27.17151 1209 ft 125 kts 346°
2026-05-04 10:21 38.24540 27.16893 1054 ft 121 kts 345°
2026-05-04 10:22 38.26060 27.16436 735 ft 114 kts 344°
2026-05-04 10:22 38.26842 27.16196 612 ft 117 kts 345°
2026-05-04 10:22 38.27636 27.15970 474 ft 122 kts 347°
2026-05-04 10:23 38.28449 27.15718 414 ft 108 kts 345°
2026-05-04 10:23 38.29035 27.15542 389 ft 63 kts 344°
2026-05-04 10:25 38.29294 27.15063 389 ft 0 kts 254°